Weather Roundup
Issued by NWS Chicago, IL

Home | Current Version | Previous Version | Text Only | Print | Product List | Glossary On
Versions: 1 2 3 4 5 6 7 8 9 10 11 12 13 14 15 16 17 18 19 20 21 22 23 24 25 26 27 28 29 30 31 32 33 34 35 36 37 38 39 40 41 42 43 44 45 46 47 48 49 50
000
NZUS59 KLOT 211708
HRRLOT

CHICAGO AREA WEATHER ROUNDUP
NATIONAL WEATHER SERVICE CHICAGO/ROMEOVILLE IL
1200 PM CDT MON MAY 21 2018

NOTE: "FAIR" INDICATES FEW OR NO CLOUDS BELOW 12,000 FEET WITH NO
SIGNIFICANT WEATHER AND/OR OBSTRUCTIONS TO VISIBILITY.

* THESE STATIONS ARE NOT UNDER NWS QUALITY CONTROL. THEY ALSO MAY NOT
  REPORT WEATHER SUCH AS PRECIPITATION OR FOG.

ILZ005-006-012>014-019>023-211800-
NORTHEAST ILLINOIS

CITY           SKY/WX    TMP DP  RH WIND       PRES   REMARKS
OHARE          LGT RAIN  56  55  97 N6        30.10F FOG
MIDWAY         LGT RAIN  57  57 100 NW5       30.11R FOG
AURORA         RAIN      59  58  96 E10       30.07F FOG
LANSING*       RAIN      63  61  96 S9        30.11R
JOLIET*        RAIN      61  61 100 NE6       30.08F
WAUKEGAN       LGT RAIN  53  53 100 E7        30.11F FOG
DUPAGE AIRPORT RAIN      57  57 100 E7        30.09F FOG
WHEELING       LGT RAIN  56  55  97 NE3       30.13S FOG
KANKAKEE*      CLOUDY    66  64  92 SE10      30.08F FOG
MORRIS*        RAIN      61  60  96 E6        30.07F
LEWIS AIRPORT* RAIN      59  58  97 NE7       30.08F
NORTHERLY ISL    N/A     56  54  93 SE1         N/A
$$

WIZ051-052-058>065-066-070>072-211800-
SOUTHEAST WISCONSIN

CITY           SKY/WX    TMP DP  RH WIND       PRES   REMARKS
MILWAUKEE      LGT RAIN  54  53  97 SE10      30.14R VSB 3/4
KENOSHA*       RAIN      55  54  96 E13       30.12F FOG
RACINE*        RAIN      52  52 100 E10       30.15S FOG
BURLINGTON     LGT RAIN  56  55  96 E12       30.11F
WAUKESHA       CLOUDY    52  52 100 E7        30.14S FOG
WEST BEND      RAIN      52  52 100 SE9       30.14S
$$

INZ001>003-010>013-019-020-211800-
NORTHWEST INDIANA

CITY           SKY/WX    TMP DP  RH WIND       PRES   REMARKS
GARY*          CLOUDY    63  63 100 SE12      30.10S FOG
MICHIGAN CITY* NOT AVBL
RENSSELAER*    NOT AVBL
VALPARAISO     CLOUDY    65  59  81 SE9G20    30.11F
$$

LMZ740>746-211800-
SOUTHERN LAKE MICHIGAN

STATION/POSITION TIME  SKY/WX   TEMP WIND        PRES    VSBY
                                AIR  DIR/SP/G
                 (UTC)          (F)  (DEG/KT/KT) (MB)    (MI)
HARRISON CRIB    1640            56  160/  3/  5   N/A
BURNHAM HARBOR   1700            56   CALM  / 17   N/A
CALUMET HARBOR   1642            57   30/  1/  4 1018.7R
BURNS HARBOR     1640            63  140/  6/ 16 1019.6S
MICHIGAN CITY    1640            60  280/  2/  3   N/A
$$

ABBREVIATIONS USED IN REMARKS
   TC - TEMPERATURE IN CELSIUS
  WCI - WIND CHILL INDEX
   HX - HEAT INDEX
  VSB - VISIBILITY
$$



USA.gov is the U.S. government's official web portal to all federal, state and local government web resources and services.